Weather History for KMLE - July, 2013

Change the Weather History Date:

Tuesday, July 9, 2013

  Actual Average (KOMA) Record (KOMA)
Temperature  
Mean Temperature 84 °F 77 °F  
Max Temperature 94 °F 88 °F 104 °F (1930)
Min Temperature 74 °F 66 °F 50 °F (1895)
Degree Days  
Heating Degree Days 0 0  
Month to date heating degree days 0  
Since 1 June heating degree days 17  
Since 1 July heating degree days 0  
Cooling Degree Days 19 12  
Month to date cooling degree days 104  
Year to date cooling degree days 416  
Since 1 June cooling degree days 334  
Growing Degree Days 34 (Base 50)    
Moisture  
Dew Point 72 °F    
Average Humidity 68    
Maximum Humidity 95    
Minimum Humidity 46    
Precipitation  
Precipitation 0.11 in 0.12 in 2.54 in (1991)
Month to date precipitation 1.10  
Year to date precipitation 16.56  
Snow  
Snow 0.00 in 0.00 in - ()
Month to date snowfall 0.0  
Since 1 July snowfall 0.0  
Snow Depth -    
Sea Level Pressure  
Sea Level Pressure 29.91 in    
Wind  
Wind Speed 4 mph (East)    
Max Wind Speed 8 mph    
Max Gust Speed -    
Visibility 10 miles    
Events Rain , Thunderstorm    
T = Trace of Precipitation, MM = Missing Value Source: NWS Daily Summary

Daily Weather History Graph

Daily Weather History Graph

Search for Another Location

Airport or City:

Trip Planner

Search our weather history database for the weather conditions in past years. The results will help you decide how hot, cold, wet, or windy it might be!

Date:

Astronomy

Jul. 09, 2013 Rise Set
Actual Time 6:00 AM CDT 8:58 PM CDT
Civil Twilight 5:27 AM CDT 9:31 PM CDT
Nautical Twilight 4:45 AM CDT 10:13 PM CDT
Astronomical Twilight 3:55 AM CDT 11:02 PM CDT
Moon 7:27 AM CDT (7/9) 9:35 PM CDT (7/9)
Length of Visible Light 16h 04m
Length of Day
14h 58m
New Moon, 2% of the Moon is Illuminated
Jul 9
New Moon
Jul 15
First Quarter
Jul 22
Full
Jul 29
Last Quarter
Aug 6
New

Hourly Weather History & Observations

Time (CDT) Temp. Heat Index Dew Point Humidity Pressure Visibility Wind Dir Wind Speed Gust Speed Precip Events Conditions
12:15 AM 80.2 °F 84.5 °F 72.7 °F 78% 29.91 in 10.0 mi SE 4.6 mph - N/A   Clear
12:35 AM 79.7 °F - 72.1 °F 78% 29.91 in 10.0 mi SE 4.6 mph - N/A   Clear
12:55 AM 79.9 °F - 71.6 °F 76% 29.91 in 10.0 mi SE 5.8 mph - N/A   Clear
1:15 AM 79.9 °F - 70.9 °F 74% 29.91 in 10.0 mi SE 5.8 mph - N/A   Clear
1:35 AM 79.3 °F - 70.5 °F 74% 29.91 in 10.0 mi SE 3.5 mph - N/A   Clear
1:55 AM 80.1 °F 83.0 °F 69.6 °F 70% 29.91 in 10.0 mi SE 3.5 mph - N/A Thunderstorm Scattered Clouds
2:15 AM 79.3 °F - 70.0 °F 73% 29.92 in 4.0 mi ESE 4.6 mph - 0.08 in Rain Heavy Rain
2:35 AM 75.6 °F - 72.1 °F 89% 29.91 in 10.0 mi Calm Calm - 0.11 in Thunderstorm Overcast
2:55 AM 75.0 °F - 72.5 °F 92% 29.92 in 7.0 mi Calm Calm - 0.11 in   Overcast
3:15 AM 74.7 °F - 73.2 °F 95% 29.92 in 4.0 mi Calm Calm - N/A   Mostly Cloudy
3:35 AM 74.8 °F - 73.4 °F 95% 29.91 in 7.0 mi Calm Calm - N/A   Scattered Clouds
3:55 AM 74.7 °F - 73.2 °F 95% 29.91 in 7.0 mi Calm Calm - N/A   Clear
4:15 AM 74.3 °F - 72.9 °F 95% 29.91 in 5.0 mi Calm Calm - N/A   Clear
4:35 AM 74.3 °F - 72.7 °F 95% 29.90 in 7.0 mi ESE 6.9 mph - N/A   Clear
4:55 AM 76.3 °F - 71.6 °F 85% 29.89 in 10.0 mi ESE 4.6 mph - N/A   Clear
5:15 AM 75.6 °F - 71.2 °F 86% 29.88 in 10.0 mi SE 8.1 mph - N/A   Clear
5:35 AM 75.9 °F - 71.1 °F 85% 29.87 in 10.0 mi SE 6.9 mph - N/A   Clear
5:55 AM 76.6 °F - 70.7 °F 82% 29.88 in 10.0 mi SSE 6.9 mph - N/A   Clear
6:15 AM 77.9 °F - 69.4 °F 75% 29.90 in 10.0 mi SSE 6.9 mph - N/A   Clear
6:35 AM 77.4 °F - 69.4 °F 76% 29.90 in 10.0 mi SE 6.9 mph - N/A   Clear
6:55 AM 76.6 °F - 70.2 °F 80% 29.90 in 10.0 mi SE 5.8 mph - N/A   Clear
7:15 AM 76.3 °F - 70.9 °F 83% 29.90 in 10.0 mi ESE 4.6 mph - N/A   Clear
7:35 AM 77.4 °F - 71.6 °F 82% 29.91 in 10.0 mi SSE 5.8 mph - N/A   Clear
7:55 AM 78.3 °F - 71.1 °F 78% 29.92 in 10.0 mi SSE 4.6 mph - N/A   Clear
8:15 AM 79.7 °F - 71.4 °F 76% 29.93 in 10.0 mi Calm Calm - N/A   Scattered Clouds
8:35 AM 79.7 °F - 71.4 °F 76% 29.94 in 10.0 mi Calm Calm - N/A   Scattered Clouds
8:55 AM 81.0 °F 85.2 °F 72.0 °F 74% 29.95 in 10.0 mi NNE 4.6 mph - N/A   Clear
9:15 AM 81.5 °F 85.9 °F 71.8 °F 72% 29.95 in 10.0 mi NE 3.5 mph - N/A   Clear
9:35 AM 82.4 °F 87.2 °F 71.6 °F 70% 29.94 in 10.0 mi Calm Calm - N/A   Clear
9:55 AM 83.5 °F 89.1 °F 72.5 °F 69% 29.93 in 10.0 mi ESE 5.8 mph - N/A   Clear
10:15 AM 83.5 °F 89.1 °F 72.1 °F 69% 29.92 in 10.0 mi SE 6.9 mph - N/A   Clear
10:35 AM 84.4 °F 90.6 °F 72.7 °F 68% 29.92 in 10.0 mi SSE 5.8 mph - N/A   Clear
10:55 AM 84.6 °F 91.4 °F 73.4 °F 69% 29.92 in 10.0 mi South 6.9 mph - N/A   Clear
11:15 AM 85.6 °F 92.2 °F 72.9 °F 65% 29.91 in 10.0 mi SE 8.1 mph - N/A   Clear
11:35 AM 86.4 °F 93.8 °F 73.4 °F 65% 29.92 in 10.0 mi South 6.9 mph - N/A   Clear
11:55 AM 86.0 °F 91.8 °F 71.8 °F 62% 29.92 in 10.0 mi South 3.5 mph - N/A   Clear
12:15 PM 86.7 °F 93.7 °F 72.9 °F 63% 29.91 in 10.0 mi SW 4.6 mph - N/A   Clear
12:35 PM 87.3 °F 94.9 °F 73.2 °F 63% 29.91 in 10.0 mi Calm Calm - N/A   Clear
12:55 PM 88.0 °F 96.5 °F 73.9 °F 63% 29.91 in 10.0 mi SSW 5.8 mph - N/A   Clear
1:15 PM 88.7 °F 97.2 °F 73.6 °F 61% 29.90 in 10.0 mi SSE 3.5 mph - N/A   Clear
1:35 PM 89.2 °F 97.9 °F 73.8 °F 60% 29.90 in 10.0 mi WSW 5.8 mph - N/A   Clear
1:55 PM 89.2 °F 96.4 °F 72.1 °F 57% 29.89 in 10.0 mi SW 3.5 mph - N/A   Clear
2:15 PM 90.1 °F 98.3 °F 72.9 °F 57% 29.89 in 10.0 mi West 3.5 mph - N/A   Clear
2:35 PM 90.7 °F 99.0 °F 73.0 °F 56% 29.89 in 10.0 mi Calm Calm - N/A   Clear
2:55 PM 91.4 °F 100.1 °F 73.4 °F 55% 29.89 in 10.0 mi Calm Calm - N/A   Clear
3:15 PM 92.1 °F 101.7 °F 73.6 °F 55% 29.89 in 10.0 mi Calm Calm - N/A   Clear
3:35 PM 93.2 °F 100.5 °F 71.4 °F 49% 29.89 in 10.0 mi NW 3.5 mph - N/A   Clear
3:55 PM 93.2 °F 100.5 °F 71.2 °F 49% 29.89 in 10.0 mi NW 3.5 mph - N/A   Clear
4:15 PM 93.4 °F 100.3 °F 70.9 °F 48% 29.89 in 10.0 mi Calm Calm - N/A   Clear
4:35 PM 93.7 °F 101.7 °F 72.1 °F 49% 29.89 in 10.0 mi WSW 3.5 mph - N/A   Clear
4:55 PM 94.3 °F 101.6 °F 71.1 °F 47% 29.89 in 10.0 mi Calm Calm - N/A   Clear
5:15 PM 94.3 °F 101.0 °F 70.3 °F 46% 29.89 in 10.0 mi Calm Calm - N/A   Clear
5:35 PM 94.1 °F 102.5 °F 72.1 °F 49% 29.89 in 10.0 mi NW 3.5 mph - N/A   Scattered Clouds
5:55 PM 93.6 °F 101.3 °F 71.6 °F 49% 29.89 in 10.0 mi NNW 5.8 mph - N/A   Scattered Clouds
6:15 PM 93.2 °F 100.5 °F 71.6 °F 49% 29.89 in 10.0 mi North 4.6 mph - N/A   Clear
6:35 PM 92.7 °F 99.4 °F 70.9 °F 49% 29.89 in 10.0 mi North 3.5 mph - N/A   Clear
6:55 PM 92.3 °F 99.2 °F 71.4 °F 50% 29.89 in 10.0 mi Calm Calm - N/A   Clear
7:15 PM 91.9 °F 98.4 °F 71.1 °F 50% 29.89 in 10.0 mi NNW 4.6 mph - N/A   Clear
7:35 PM 91.4 °F 98.4 °F 71.8 °F 52% 29.89 in 10.0 mi North 6.9 mph - N/A   Clear
7:55 PM 90.5 °F 98.1 °F 72.1 °F 55% 29.89 in 10.0 mi NNE 3.5 mph - N/A   Clear
8:15 PM 89.8 °F 96.0 °F 71.1 °F 54% 29.89 in 10.0 mi North 3.5 mph - N/A   Clear
8:35 PM 89.6 °F 96.2 °F 71.4 °F 55% 29.90 in 10.0 mi North 8.1 mph - N/A   Clear
8:55 PM 88.0 °F 95.6 °F 72.9 °F 61% 29.91 in 10.0 mi North 3.5 mph - N/A   Clear
9:15 PM 87.3 °F 94.9 °F 73.4 °F 63% 29.92 in 10.0 mi North 3.5 mph - N/A   Clear
9:35 PM 86.9 °F 94.1 °F 72.9 °F 63% 29.92 in 10.0 mi North 4.6 mph - N/A   Clear
9:55 PM 86.0 °F 93.0 °F 73.0 °F 65% 29.92 in 10.0 mi North 3.5 mph - N/A   Clear
10:15 PM 85.5 °F 91.5 °F 72.0 °F 64% 29.93 in 10.0 mi North 4.6 mph - N/A   Clear
10:35 PM 85.1 °F 90.4 °F 71.4 °F 63% 29.94 in 10.0 mi North 5.8 mph - N/A   Clear
10:55 PM 84.2 °F 89.3 °F 71.1 °F 65% 29.94 in 10.0 mi North 5.8 mph - N/A   Clear
11:15 PM 83.3 °F 87.9 °F 71.1 °F 66% 29.95 in 10.0 mi North 8.1 mph - N/A   Clear
11:35 PM 82.9 °F 87.5 °F 70.9 °F 67% 29.96 in 10.0 mi North 6.9 mph - N/A   Clear
11:55 PM 81.9 °F 86.0 °F 70.7 °F 69% 29.96 in 10.0 mi North 5.8 mph - N/A   Clear